Hollywood, FL

1:02 PM EST on December 11, 2017 (GMT -0500)
North Perry

Weather History for KHWO - March, 2013

Change the Weather History Date:

Wednesday, March 13, 2013

  Actual Average (KFLL) Record (KFLL)
Temperature  
Mean Temperature 68 °F -  
Max Temperature 79 °F 79 °F 91 °F (1964)
Min Temperature 57 °F 64 °F 36 °F (1924)
Cooling Degree Days 2    
Growing Degree Days 18 (Base 50)    
Moisture  
Dew Point 54 °F    
Average Humidity 67    
Maximum Humidity 89    
Minimum Humidity 31    
Precipitation  
Precipitation 0.00 in - - ()
Sea Level Pressure  
Sea Level Pressure 30.07 in    
Wind  
Wind Speed 9 mph (NNW)    
Max Wind Speed 15 mph    
Max Gust Speed 21 mph    
Visibility 10 miles    
Events      
Averages and records for this station are not official NWS values.
T = Trace of Precipitation, MM = Missing Value Source: NWS Daily Summary

Daily Weather History Graph

Daily Weather History Graph

Search for Another Location

Airport or City:

Trip Planner

Search our weather history database for the weather conditions in past years. The results will help you decide how hot, cold, wet, or windy it might be!

Date:

Astronomy

Mar. 13, 2013 Rise Set
Actual Time 7:32 AM EDT 7:28 PM EDT
Civil Twilight 7:09 AM EDT 7:51 PM EDT
Nautical Twilight 6:42 AM EDT 8:18 PM EDT
Astronomical Twilight 6:15 AM EDT 8:45 PM EDT
Moon 8:25 AM EDT (3/13) 9:25 PM EDT (3/13)
Length of Visible Light 12h 42m
Length of Day
11h 56m
Waxing Crescent, 4% of the Moon is Illuminated
Mar 13
Waxing Crescent
Mar 19
First Quarter
Mar 27
Full
Apr 3
Last Quarter
Apr 10
New

Hourly Weather History & Observations

Time (EDT) Temp. Dew Point Humidity Pressure Visibility Wind Dir Wind Speed Gust Speed Precip Events Conditions
12:12 AM 69.8 °F 64.4 °F 83% 30.03 in 10.0 mi WNW 6.9 mph - N/A   Overcast
12:49 AM 69.8 °F 64.4 °F 83% 30.03 in 10.0 mi WNW 6.9 mph - N/A   Overcast
12:53 AM 69.1 °F 64.0 °F 84% 30.03 in 10.0 mi West 4.6 mph - N/A   Overcast
1:53 AM 70.0 °F 64.9 °F 84% 30.03 in 10.0 mi West 4.6 mph - N/A   Overcast
2:29 AM 69.8 °F 64.4 °F 83% 30.02 in 10.0 mi WNW 10.4 mph - N/A   Overcast
2:51 AM 68.0 °F 62.6 °F 83% 30.02 in 10.0 mi WNW 11.5 mph - N/A   Overcast
3:53 AM 66.0 °F 62.1 °F 87% 30.01 in 10.0 mi WNW 12.7 mph - N/A   Overcast
4:06 AM 64.4 °F 60.8 °F 88% 30.01 in 10.0 mi NW 9.2 mph - N/A   Overcast
4:28 AM 64.4 °F 57.2 °F 77% 30.02 in 10.0 mi NW 15.0 mph 20.7 mph N/A   Overcast
4:53 AM 62.1 °F 55.0 °F 78% 30.03 in 10.0 mi NW 12.7 mph - N/A   Overcast
5:53 AM 57.9 °F 53.1 °F 84% 30.04 in 10.0 mi NW 8.1 mph - N/A   Mostly Cloudy
6:32 AM 57.2 °F 53.6 °F 88% 30.05 in 10.0 mi NW 9.2 mph - N/A   Scattered Clouds
6:42 AM 57.2 °F 53.6 °F 88% 30.06 in 10.0 mi NW 12.7 mph - N/A   Mostly Cloudy
6:53 AM 57.9 °F 54.0 °F 87% 30.06 in 10.0 mi NW 9.2 mph - N/A   Overcast
7:28 AM 57.2 °F 53.6 °F 88% 30.07 in 10.0 mi NNW 10.4 mph - N/A   Mostly Cloudy
7:53 AM 57.0 °F 54.0 °F 89% 30.08 in 10.0 mi NW 10.4 mph - N/A   Clear
8:53 AM 57.9 °F 53.1 °F 84% 30.10 in 10.0 mi NNW 10.4 mph - N/A   Clear
9:53 AM 61.0 °F 51.1 °F 70% 30.12 in 10.0 mi NNW 11.5 mph - N/A   Clear
10:53 AM 64.9 °F 53.1 °F 65% 30.13 in 10.0 mi North 9.2 mph - N/A   Clear
11:53 AM 70.0 °F 54.0 °F 57% 30.13 in 10.0 mi NNW 9.2 mph - N/A   Clear
12:53 PM 73.0 °F 52.0 °F 48% 30.12 in 10.0 mi North 9.2 mph - N/A   Clear
1:53 PM 77.0 °F 48.9 °F 37% 30.10 in 10.0 mi NNW 15.0 mph 20.7 mph N/A   Clear
2:53 PM 77.0 °F 50.0 °F 39% 30.08 in 10.0 mi North 9.2 mph - N/A   Clear
3:53 PM 78.1 °F 46.9 °F 33% 30.07 in 10.0 mi North 13.8 mph - N/A   Clear
4:53 PM 77.0 °F 44.1 °F 31% 30.06 in 10.0 mi North 12.7 mph 20.7 mph N/A   Clear
5:53 PM 75.9 °F 43.0 °F 31% 30.06 in 10.0 mi NNE 13.8 mph 18.4 mph N/A   Clear
6:53 PM 73.0 °F 42.1 °F 33% 30.08 in 10.0 mi North 12.7 mph - N/A   Clear
7:53 PM 68.0 °F 50.0 °F 52% 30.10 in 10.0 mi NE 5.8 mph - N/A   Clear
8:53 PM 66.0 °F 46.0 °F 48% 30.12 in 10.0 mi NE 5.8 mph - N/A   Clear
9:53 PM 64.0 °F 46.9 °F 54% 30.13 in 10.0 mi North 4.6 mph - N/A   Clear
10:53 PM 63.0 °F 46.0 °F 54% 30.14 in 10.0 mi North 3.5 mph - N/A   Clear
11:53 PM 62.1 °F 46.9 °F 58% 30.15 in 10.0 mi North 3.5 mph - N/A   Clear